This demonstration page uses our WeatherBlox Daily Observations layout. Learn more.

39.92423, -83.80882

Hourly Observations for June 2, 2019

Temp ( °F °C ) Dew Point ( °F °C ) Humidity (%) Winds ( mph kmh ) Pressure ( in mb ) Visibility ( mi km ) Precip ( " mm )
12:56 am 00:56 Clear 67 19.4 62 16.7 84 84 SW 6 9 29.78 1009 10 16.0934 0 0
1:56 am 01:56 Mostly Clear 67 19.4 62 16.7 84 84 SW 8 13 29.76 1008 10 16.0934 0 0
2:23 am 02:23 Cloudy with Nearby Thunderstorms 66 19 63 17 88 88 N 12 19 29.79 1009 10 16.0934 0 0.0254
2:43 am 02:43 Cloudy with Nearby Thunderstorms 63 17 61 16 94 94 NNE 8 13 29.79 1009 10 16.0934 0.1 2.54
2:49 am 02:49 Cloudy with Nearby Thunderstorms 63 17 61 16 94 94 N 6 9 29.79 1009 10 16.0934 0.1 2.54
2:56 am 02:56 Cloudy with Nearby Thunderstorms 62 16.7 60 15.6 93 93 Calm 29.79 1009 10 16.0934 0.1 2.54
3:38 am 03:38 Mostly Cloudy with Light Rain 61 16 61 16 100 100 SSE 6 9 29.78 1008 10 16.0934 0.03 0.762
3:56 am 03:56 Cloudy with Light Rain 61 16.1 61 16.1 100 100 SSE 6 9 29.77 1008 10 16.0934 0.03 0.762
4:56 am 04:56 Mostly Clear 60 15.6 60 15.6 100 100 Calm 29.76 1008 9 14.48406 0 0.0254
5:56 am 05:56 Mostly Clear 60 15.6 60 15.6 100 100 WSW 3 6 29.76 1008 8 12.87472 0 0
6:56 am 06:56 Sunny with Mist and Fog 61 16.1 61 16.1 100 100 SW 3 6 29.76 1008 6 9.65604 0 0
7:56 am 07:56 Sunny 63 17.2 63 17.2 100 100 SW 8 13 29.78 1009 10 16.0934 0 0
8:56 am 08:56 Mostly Sunny 67 19.4 65 18.3 93 93 WSW 10 17 29.79 1009 10 16.0934 0 0
9:56 am 09:56 Sunny 69 20.6 64 17.8 84 84 WNW 10 17 29.8 1009 10 16.0934 0 0
10:56 am 10:56 Sunny 71 21.7 64 17.8 79 79 NW 15 24 29.81 1010 10 16.0934 0 0
11:37 am 11:37 Mostly Cloudy 72 22 64 18 78 78 NNW 14 22 29.8 1009 10 16.0934 0 0
11:56 am 11:56 Mostly Cloudy 72 22.2 63 17.2 73 73 NW 12 19 29.83 1010 10 16.0934 0 0
12:49 pm 12:49 Mostly Cloudy 73 23 63 17 69 69 NW 10 17 29.82 1010 10 16.0934 0 0
12:56 pm 12:56 Mostly Cloudy 73 22.8 63 17.2 71 71 NNW 10 17 29.85 1011 10 16.0934 0 0
1:56 pm 13:56 Mostly Cloudy 72 22.2 62 16.7 71 71 NNW 14 22 29.85 1011 10 16.0934 0 0
2:56 pm 14:56 Mostly Sunny 73 22.8 59 15 62 62 WNW 16 26 29.85 1011 10 16.0934 0 0
3:56 pm 15:56 Mostly Cloudy 72 22.2 57 13.9 59 59 NW 14 22 29.86 1011 10 16.0934 0 0
4:56 pm 16:56 Partly Cloudy 73 22.8 56 13.3 55 55 NW 14 22 29.86 1011 10 16.0934 0 0
5:56 pm 17:56 Sunny 71 21.7 53 11.7 53 53 NW 13 20 29.87 1012 10 16.0934 0 0
6:56 pm 18:56 Mostly Sunny 71 21.7 54 12.2 55 55 NNW 13 20 29.88 1012 10 16.0934 0 0
7:56 pm 19:56 Mostly Sunny 69 20.6 54 12.2 59 59 NNW 10 17 29.9 1013 10 16.0934 0 0
8:56 pm 20:56 Partly Cloudy 66 18.9 51 10.6 59 59 NNW 12 19 29.92 1013 10 16.0934 0 0
9:56 pm 21:56 Mostly Clear 63 17.2 47 8.3 56 56 NNW 13 20 29.95 1014 10 16.0934 0 0
10:56 pm 22:56 Clear 60 15.6 38 3.3 44 44 NNW 13 20 29.98 1015 10 16.0934 0 0
11:56 pm 23:56 Clear 55 12.8 39 3.9 55 55 NW 7 11 29.99 1016 10 16.0934 0 0

Powered by AerisWeather